Powrót do katalogu

STARLINK-4676

AktywnyŁącznośćVLEO
NORAD 53598·PAYLOAD·🇺🇸 United States

Wystrzelony Aug 28, 2022 z Cape Canaveral Space Force Station

Loading…

Następne Przeloty (najbliższe 24 godziny)

TLE

ŚwieżeSource: CelesTrak SupGP

Epoka: Sep 14, 2026, 13:41 UTC

1 53598C 22104L   26257.57062500  .00698640  00000+0  32875-1 0  2571
2 53598  53.1599 113.1402 0001329  99.1326 289.5357 15.18691145    12

Śledź STARLINK-4676 w czasie rzeczywistym z AllMySat

Download on the App Store